Zurück zum Katalog

THOR ABLESTAR DEB

AktivLEO
NORAD 470·DEBRIS·🇺🇸 United States

Gestartet Jun 29, 1961 von Cape Canaveral Space Force Station

Loading…

Nächste Überflüge (nächste 24 Stunden)

TLE

AktuellSource: Space-Track

Epoche: Sep 14, 2026, 15:40 UTC

1 00470U 61015FG  26257.65301637  .00000625  00000-0  39639-3 0  9993
2 00470  66.2309  42.7999 0074188 271.6028  87.6559 14.09427115325007

Verfolge THOR ABLESTAR DEB in Echtzeit mit AllMySat

Download on the App Store